(75797) = 2000 AN232

Discovered at Socorro on 2000-01-04 by LINEAR.

Orbit

Orbit type: Main Belt

Note: WebGL enabled browser required.

epoch2024-03-31.0
epoch JD2460400.5
perihelion date2022-11-06.81865
perihelion JD2459890.31865
argument of perihelion (°)131.21922
ascending node (°)301.20980
inclination (°)5.09094
eccentricity0.0503502
perihelion distance (AU)2.6591789
Tisserand w.r.t. Jupiter3.3
ΔV w.r.t. Earth (km/sec)10.3
semimajor axis (AU)2.8001679
mean anomaly (°)107.31299
mean daily motion (°/day)0.21034280
aphelion distance (AU)2.941
period (years)4.69
P-vector [x]0.29934906
P-vector [y]0.84671451
P-vector [z]0.43984619
Q-vector [x]-0.95112048
Q-vector [y]0.30147067
Q-vector [z]0.06697213
absolute magnitude15.4
phase slope0.15
uncertainty0
referenceMPEC 2024-F14
observations used823
oppositions20
arc length (days)9288
first opposition used1998
last opposition used2024
residual rms (arc-secs)0.71
perturbers coarse indicatorM-v
perturbers precise indicator003Ek
first observation date used1998-10-12.0
last observation date used2024-03-17.0
computer nameMPCLINUX
JD of orbit computation2456819.583731
perihelion JD uncertainty (days)4.3718E-04
argument of perihelion uncertainty (°)1.1219E-04
ascending node uncertainty (°)5.3710E-05
inclination uncertainty (°)5.6788E-06
eccentricity uncertainty 4.2987E-08
perihelion distance uncertainty (AU)1.2103E-07
Minimum Orbit Intersection Distances (in AU)
for orbit epoch: 2460400.5, reference: E2024-G51
Mercury2.35142
Venus1.9408
Earth1.67787
Mars1.06806
Jupiter2.20148
Saturn6.37904
Uranus15.6371
Neptune27.1407

Observations

839 total observations over interval: 1998 10 12.29884 – 2024 03 17.511733
These data are available for download (format description).

Date (UT) J2000 RA J2000 Dec Magn Location Ref
1998 10 12.29884 00 56 52.72 +14 35 47.4 18.5 R 699 – Lowell Observatory-LONEOS MPS 58812
1998 10 12.32365 00 56 51.42 +14 35 40.4   699 – Lowell Observatory-LONEOS MPS 58812
1998 10 12.34847 00 56 50.20 +14 35 33.1   699 – Lowell Observatory-LONEOS MPS 58812
2000 01 04.36569 08 59 44.24 +16 58 25.0 19.1   704 – Lincoln Laboratory ETS, New Mexico MPS 10236
2000 01 04.39508 08 59 42.98 +16 58 26.0 19.8   704 – Lincoln Laboratory ETS, New Mexico MPS 10236
2000 01 04.40998 08 59 42.40 +16 58 27.3 19.4   704 – Lincoln Laboratory ETS, New Mexico MPS 10236
2000 01 04.42467 08 59 41.78 +16 58 27.5 19.7   704 – Lincoln Laboratory ETS, New Mexico MPS 10236
2000 01 05.42630 08 59 01.12 +16 59 23.6 18.9 V 691 – Steward Observatory, Kitt Peak-Spacewatch MPS 10236
2000 01 05.44869 08 59 00.17 +16 59 24.9 18.9 V 691 – Steward Observatory, Kitt Peak-Spacewatch MPS 10236
2000 01 05.47105 08 58 59.20 +16 59 26.1 19.0 V 691 – Steward Observatory, Kitt Peak-Spacewatch MPS 10236
2000 01 26.85696 08 40 32.76 +17 31 09.6 18.9   120 – Visnjan MPS 10236
2000 01 26.87571 08 40 31.74 +17 31 12.6   120 – Visnjan MPS 10236
2000 01 26.89448 08 40 30.57 +17 31 15.4   120 – Visnjan MPS 10236
2000 02 02.25510 08 34 24.64 +17 41 58.4 18.7   704 – Lincoln Laboratory ETS, New Mexico MPS 10236
2000 02 02.26949 08 34 23.86 +17 42 01.2 19.6   704 – Lincoln Laboratory ETS, New Mexico MPS 10236
2000 02 02.29835 08 34 22.08 +17 42 02.9 19.6   704 – Lincoln Laboratory ETS, New Mexico MPS 10236
2000 02 02.31307 08 34 21.30 +17 42 03.1 20.0   704 – Lincoln Laboratory ETS, New Mexico MPS 10236
2000 02 03.23244 08 33 29.26 +17 43 32.9 19.1   704 – Lincoln Laboratory ETS, New Mexico MPS 10236
2000 02 03.24713 08 33 28.42 +17 43 33.9 19.3   704 – Lincoln Laboratory ETS, New Mexico MPS 10236
2000 02 03.26177 08 33 27.56 +17 43 34.9 19.3   704 – Lincoln Laboratory ETS, New Mexico MPS 10236
2000 02 03.27641 08 33 26.71 +17 43 34.4 19.6   704 – Lincoln Laboratory ETS, New Mexico MPS 10236
2000 02 03.29106 08 33 25.88 +17 43 37.1 19.5   704 – Lincoln Laboratory ETS, New Mexico MPS 10236
2000 03 04.10057 08 12 44.15 +18 09 05.7 19.6 V 691 – Steward Observatory, Kitt Peak-Spacewatch MPS 10964
2000 03 04.12280 08 12 43.62 +18 09 05.6 19.6 V 691 – Steward Observatory, Kitt Peak-Spacewatch MPS 10964
2000 03 04.14468 08 12 43.14 +18 09 05.6 19.5 V 691 – Steward Observatory, Kitt Peak-Spacewatch MPS 10964
2000 03 10.11215 08 11 08.42 +18 07 36.6 19.7 V 691 – Steward Observatory, Kitt Peak-Spacewatch MPS 10964
2000 03 10.13446 08 11 08.15 +18 07 35.7 19.8 V 691 – Steward Observatory, Kitt Peak-Spacewatch MPS 10964
2000 03 10.15669 08 11 07.86 +18 07 35.3 19.4 V 691 – Steward Observatory, Kitt Peak-Spacewatch MPS 10964
2001 04 26.32352 14 37 23.02 -23 23 03.2 18.7 R 699 – Lowell Observatory-LONEOS MPS 58812
2001 04 26.34226 14 37 22.03 -23 22 58.1   699 – Lowell Observatory-LONEOS MPS 58812
2001 04 26.36105 14 37 20.92 -23 22 54.2   699 – Lowell Observatory-LONEOS MPS 58812
2001 04 26.37987 14 37 19.93 -23 22 49.7   699 – Lowell Observatory-LONEOS MPS 58812
2002 07 14.40212 21 08 20.10 -15 42 53.1 19.9   644 – Palomar Mountain/NEAT MPS 59714
2002 07 14.41483 21 08 19.52 -15 42 54.0 20.1   644 – Palomar Mountain/NEAT MPS 59714
2002 07 14.43333 21 08 18.70 -15 42 55.2 20.2   644 – Palomar Mountain/NEAT MPS 59714
2002 07 18.25226 21 05 29.27 -15 48 26.2 20.0   644 – Palomar Mountain/NEAT MPS 59714
2002 07 18.32906 21 05 25.63 -15 48 33.8 19.5   644 – Palomar Mountain/NEAT MPS 59714
2002 07 18.39605 21 05 22.42 -15 48 40.1 19.6   644 – Palomar Mountain/NEAT MPS 59714
2002 07 28.40514 20 57 04.60 -16 06 05.5 20.4   608 – Haleakala-AMOS MPS 59714
2002 07 28.41557 20 57 04.02 -16 06 07.6 20.4   608 – Haleakala-AMOS MPS 59714
2002 07 28.42615 20 57 03.45 -16 06 09.0 20.1   608 – Haleakala-AMOS MPS 59714
2002 08 06.34218 20 49 07.41 -16 23 18.1 18.7   644 – Palomar Mountain/NEAT MPS 59714
2002 08 06.36549 20 49 06.15 -16 23 20.5 18.8   644 – Palomar Mountain/NEAT MPS 59714
2002 08 06.39101 20 49 04.72 -16 23 23.4 18.7   644 – Palomar Mountain/NEAT MPS 59714
2002 08 07.31878 20 48 15.27 -16 25 09.8 18.9   644 – Palomar Mountain/NEAT MPS 59714
2002 08 07.34467 20 48 13.85 -16 25 12.8 18.9   644 – Palomar Mountain/NEAT MPS 59714
2002 08 07.37258 20 48 12.30 -16 25 15.8 18.9   644 – Palomar Mountain/NEAT MPS 59714
2003 10 19.46801 03 36 17.67 +26 56 56.4 19.1   644 – Palomar Mountain/NEAT MPS 87780
2003 10 19.47936 03 36 17.25 +26 56 56.0 19.1   644 – Palomar Mountain/NEAT MPS 87780
2003 10 19.49061 03 36 16.83 +26 56 55.6 18.9   644 – Palomar Mountain/NEAT MPS 87780
2003 10 22.32133 03 34 29.13 +26 54 29.2 19.3   704 – Lincoln Laboratory ETS, New Mexico MPS 87780
2003 10 22.33279 03 34 28.69 +26 54 28.9 19.6   704 – Lincoln Laboratory ETS, New Mexico MPS 87780
2003 10 22.35626 03 34 27.65 +26 54 27.5 19.6   704 – Lincoln Laboratory ETS, New Mexico MPS 87780
2003 10 27.40467 03 30 47.55 +26 47 11.8 19.6 V 691 – Steward Observatory, Kitt Peak-Spacewatch MPS 89305
2003 10 27.43138 03 30 46.25 +26 47 08.7 19.6 V 691 – Steward Observatory, Kitt Peak-Spacewatch MPS 89305
2003 10 27.45900 03 30 44.91 +26 47 05.5 19.5 V 691 – Steward Observatory, Kitt Peak-Spacewatch MPS 89305
2003 11 14.41703 03 14 39.94 +25 51 59.2 18.6   644 – Palomar Mountain/NEAT MPS 90898
2003 11 14.43985 03 14 38.59 +25 51 53.3 18.7   644 – Palomar Mountain/NEAT MPS 90898
2003 11 14.46184 03 14 37.32 +25 51 47.6 18.3   644 – Palomar Mountain/NEAT MPS 90898
2003 11 16.26841 03 12 54.69 +25 44 03.5 19.1 V 691 – Steward Observatory, Kitt Peak-Spacewatch MPS 90898
2003 11 16.30004 03 12 52.84 +25 43 55.3 19.1 V 691 – Steward Observatory, Kitt Peak-Spacewatch MPS 90898
2003 11 16.32763 03 12 51.19 +25 43 48.2 19.1 V 691 – Steward Observatory, Kitt Peak-Spacewatch MPS 90898
2003 11 20.26952 03 09 09.47 +25 25 49.7 18.9   704 – Lincoln Laboratory ETS, New Mexico MPS 90898
2003 11 20.28198 03 09 08.77 +25 25 46.5 19.0   704 – Lincoln Laboratory ETS, New Mexico MPS 90898
2003 11 20.29441 03 09 08.08 +25 25 43.7 19.3   704 – Lincoln Laboratory ETS, New Mexico MPS 90898
2003 11 20.30692 03 09 07.18 +25 25 39.7 20.2   704 – Lincoln Laboratory ETS, New Mexico MPS 90898
2003 11 20.31967 03 09 06.58 +25 25 35.7 19.0   704 – Lincoln Laboratory ETS, New Mexico MPS 90898
2003 11 21.26251 03 08 14.67 +25 21 07.8 18.8   644 – Palomar Mountain/NEAT MPS 91712
2003 11 21.28444 03 08 13.41 +25 21 01.5 18.7   644 – Palomar Mountain/NEAT MPS 91712
2003 11 21.30817 03 08 12.08 +25 20 54.6 18.9   644 – Palomar Mountain/NEAT MPS 91712
2003 11 24.21012 03 05 35.39 +25 06 45.0 19.5   704 – Lincoln Laboratory ETS, New Mexico MPS 91712
2003 11 24.22254 03 05 34.75 +25 06 42.2 19.1   704 – Lincoln Laboratory ETS, New Mexico MPS 91712
2003 11 24.23503 03 05 34.08 +25 06 38.0 19.3   704 – Lincoln Laboratory ETS, New Mexico MPS 91712
2003 11 24.24740 03 05 33.45 +25 06 34.9 19.3   704 – Lincoln Laboratory ETS, New Mexico MPS 91712
2003 11 26.18554 03 03 52.27 +24 56 53.1 19.3   704 – Lincoln Laboratory ETS, New Mexico MPS 91712
2003 11 26.19821 03 03 51.58 +24 56 49.8 19.9   704 – Lincoln Laboratory ETS, New Mexico MPS 91712
2003 11 26.21107 03 03 50.88 +24 56 45.8 19.6   704 – Lincoln Laboratory ETS, New Mexico MPS 91712
2003 12 15.20235 02 51 16.46 +23 22 33.9 18.9 V 703 – Catalina Sky Survey MPS 93614
2003 12 15.21146 02 51 16.34 +23 22 32.8 18.5 V 703 – Catalina Sky Survey MPS 93614
2003 12 15.22057 02 51 15.82 +23 22 27.8 19.5 V 703 – Catalina Sky Survey MPS 93614
2003 12 15.22975 02 51 15.58 +23 22 25.9 19.8 V 703 – Catalina Sky Survey MPS 93614
2003 12 17.18397 02 50 28.57 +23 13 43.7 19.2   644 – Palomar Mountain/NEAT MPS 93614
2003 12 17.20448 02 50 28.09 +23 13 39.2 19.9   644 – Palomar Mountain/NEAT MPS 93614
2003 12 17.22514 02 50 27.57 +23 13 32.8 19.2   644 – Palomar Mountain/NEAT MPS 93614
2003 12 18.21609 02 50 06.20 +23 09 17.3 20.1   704 – Lincoln Laboratory ETS, New Mexico MPS 93614
2003 12 18.23161 02 50 05.71 +23 09 12.0 19.5   704 – Lincoln Laboratory ETS, New Mexico MPS 93614
2003 12 18.24775 02 50 05.42 +23 09 07.4 19.9   704 – Lincoln Laboratory ETS, New Mexico MPS 93614
2003 12 18.26275 02 50 05.05 +23 09 04.2 19.7   704 – Lincoln Laboratory ETS, New Mexico MPS 93614
